#datetime,building,power
2023-08-11T00:00:00,75s,1.56
2023-08-11T00:01:00,75s,1.62
2023-08-11T00:02:00,75s,1.76
2023-08-11T00:03:00,75s,2.13
2023-08-11T00:04:00,75s,1.59
2023-08-11T00:05:00,75s,1.55
2023-08-11T00:06:00,75s,1.51
2023-08-11T00:07:00,75s,1.55
2023-08-11T00:08:00,75s,1.56
2023-08-11T00:09:00,75s,1.54
2023-08-11T00:10:00,75s,1.45
2023-08-11T00:11:00,75s,1.46
2023-08-11T00:12:00,75s,1.46
2023-08-11T00:13:00,75s,1.45
2023-08-11T00:14:00,75s,1.46
2023-08-11T00:15:00,75s,1.56
2023-08-11T00:16:00,75s,1.90
2023-08-11T00:17:00,75s,1.55
2023-08-11T00:18:00,75s,1.54
2023-08-11T00:19:00,75s,1.53
2023-08-11T00:20:00,75s,1.60
2023-08-11T00:21:00,75s,1.60
2023-08-11T00:22:00,75s,1.59
2023-08-11T00:23:00,75s,1.51
2023-08-11T00:24:00,75s,1.51
2023-08-11T00:25:00,75s,1.51
2023-08-11T00:26:00,75s,1.67
2023-08-11T00:27:00,75s,1.59
2023-08-11T00:28:00,75s,1.60
2023-08-11T00:29:00,75s,1.96
2023-08-11T00:30:00,75s,1.96
2023-08-11T00:31:00,75s,2.09
2023-08-11T00:32:00,75s,1.72
2023-08-11T00:33:00,75s,2.04
2023-08-11T00:34:00,75s,1.67
2023-08-11T00:35:00,75s,2.01
2023-08-11T00:36:00,75s,1.56
2023-08-11T00:37:00,75s,1.55
2023-08-11T00:38:00,75s,1.63
2023-08-11T00:39:00,75s,1.63
2023-08-11T00:40:00,75s,1.63
2023-08-11T00:41:00,75s,1.56
2023-08-11T00:42:00,75s,1.55
2023-08-11T00:43:00,75s,1.55
2023-08-11T00:44:00,75s,1.55
2023-08-11T00:45:00,75s,1.63
2023-08-11T00:46:00,75s,1.74
2023-08-11T00:47:00,75s,1.62
2023-08-11T00:48:00,75s,1.54
2023-08-11T00:49:00,75s,1.54
2023-08-11T00:50:00,75s,1.72
2023-08-11T00:51:00,75s,1.62
2023-08-11T00:52:00,75s,1.62
2023-08-11T00:53:00,75s,1.55
2023-08-11T00:54:00,75s,1.54
2023-08-11T00:55:00,75s,1.66
2023-08-11T00:56:00,75s,1.52
2023-08-11T00:57:00,75s,1.60
2023-08-11T00:58:00,75s,1.60
2023-08-11T00:59:00,75s,1.60
2023-08-11T01:00:00,75s,1.44
2023-08-11T01:01:00,75s,1.58
2023-08-11T01:02:00,75s,1.52
2023-08-11T01:03:00,75s,1.53
2023-08-11T01:04:00,75s,1.47
2023-08-11T01:05:00,75s,1.51
2023-08-11T01:06:00,75s,1.51
2023-08-11T01:07:00,75s,1.52
2023-08-11T01:08:00,75s,1.52
2023-08-11T01:09:00,75s,1.59
2023-08-11T01:10:00,75s,1.60
2023-08-11T01:11:00,75s,2.03
2023-08-11T01:12:00,75s,1.52
2023-08-11T01:13:00,75s,1.59
2023-08-11T01:14:00,75s,1.58
2023-08-11T01:15:00,75s,1.51
2023-08-11T01:16:00,75s,1.49
2023-08-11T01:17:00,75s,1.49
2023-08-11T01:18:00,75s,1.49
2023-08-11T01:19:00,75s,1.43
2023-08-11T01:20:00,75s,1.76
2023-08-11T01:21:00,75s,1.51
2023-08-11T01:22:00,75s,1.46
2023-08-11T01:23:00,75s,1.47
2023-08-11T01:24:00,75s,1.49
2023-08-11T01:25:00,75s,1.49
2023-08-11T01:26:00,75s,1.50
2023-08-11T01:27:00,75s,1.43
2023-08-11T01:28:00,75s,1.41
2023-08-11T01:29:00,75s,1.41
2023-08-11T01:30:00,75s,1.41
2023-08-11T01:31:00,75s,1.78
2023-08-11T01:32:00,75s,1.62
2023-08-11T01:33:00,75s,1.51
2023-08-11T01:34:00,75s,1.76
2023-08-11T01:35:00,75s,1.49
2023-08-11T01:36:00,75s,1.42
2023-08-11T01:37:00,75s,1.42
2023-08-11T01:38:00,75s,1.49
2023-08-11T01:39:00,75s,1.41
2023-08-11T01:40:00,75s,1.49
2023-08-11T01:41:00,75s,1.49
2023-08-11T01:42:00,75s,1.58
2023-08-11T01:43:00,75s,1.50
2023-08-11T01:44:00,75s,1.50
2023-08-11T01:45:00,75s,1.60
2023-08-11T01:46:00,75s,1.87
2023-08-11T01:47:00,75s,1.52
2023-08-11T01:48:00,75s,1.50
2023-08-11T01:49:00,75s,1.51
2023-08-11T01:50:00,75s,1.53
2023-08-11T01:51:00,75s,1.56
2023-08-11T01:52:00,75s,1.55
2023-08-11T01:53:00,75s,1.55
2023-08-11T01:54:00,75s,1.57
2023-08-11T01:55:00,75s,1.63
2023-08-11T01:56:00,75s,1.63
2023-08-11T01:57:00,75s,1.55
2023-08-11T01:58:00,75s,1.55
2023-08-11T01:59:00,75s,2.02
2023-08-11T02:00:00,75s,1.62
2023-08-11T02:01:00,75s,1.78
2023-08-11T02:02:00,75s,1.78
2023-08-11T02:03:00,75s,1.61
2023-08-11T02:04:00,75s,1.52
2023-08-11T02:05:00,75s,1.52
2023-08-11T02:06:00,75s,1.53
2023-08-11T02:07:00,75s,1.64
2023-08-11T02:08:00,75s,1.56
2023-08-11T02:09:00,75s,1.56
2023-08-11T02:10:00,75s,1.47
2023-08-11T02:11:00,75s,1.51
2023-08-11T02:12:00,75s,1.49
2023-08-11T02:13:00,75s,1.48
2023-08-11T02:14:00,75s,1.81
2023-08-11T02:15:00,75s,1.48
2023-08-11T02:16:00,75s,1.50
2023-08-11T02:17:00,75s,1.48
2023-08-11T02:18:00,75s,1.56
2023-08-11T02:19:00,75s,1.93
2023-08-11T02:20:00,75s,1.93
2023-08-11T02:21:00,75s,1.55
2023-08-11T02:22:00,75s,1.47
2023-08-11T02:23:00,75s,1.48
2023-08-11T02:24:00,75s,1.45
2023-08-11T02:25:00,75s,1.46
2023-08-11T02:26:00,75s,1.79
2023-08-11T02:27:00,75s,1.46
2023-08-11T02:28:00,75s,1.46
2023-08-11T02:29:00,75s,1.46
2023-08-11T02:30:00,75s,1.45
2023-08-11T02:31:00,75s,1.56
2023-08-11T02:32:00,75s,1.64
2023-08-11T02:33:00,75s,1.63
2023-08-11T02:34:00,75s,1.47
2023-08-11T02:35:00,75s,1.48
2023-08-11T02:36:00,75s,1.71
2023-08-11T02:37:00,75s,1.47
2023-08-11T02:38:00,75s,1.53
2023-08-11T02:39:00,75s,1.75
2023-08-11T02:40:00,75s,1.51
2023-08-11T02:41:00,75s,1.52
2023-08-11T02:42:00,75s,1.59
2023-08-11T02:43:00,75s,1.77
2023-08-11T02:44:00,75s,1.59
2023-08-11T02:45:00,75s,1.59
2023-08-11T02:46:00,75s,1.62
2023-08-11T02:47:00,75s,1.54
2023-08-11T02:48:00,75s,1.52
2023-08-11T02:49:00,75s,1.51
2023-08-11T02:50:00,75s,1.51
2023-08-11T02:51:00,75s,1.51
2023-08-11T02:52:00,75s,1.51
2023-08-11T02:53:00,75s,1.52
2023-08-11T02:54:00,75s,1.68
2023-08-11T02:55:00,75s,1.64
2023-08-11T02:56:00,75s,1.63
2023-08-11T02:57:00,75s,1.64
2023-08-11T02:58:00,75s,1.63
2023-08-11T02:59:00,75s,1.63
2023-08-11T03:00:00,75s,1.55
2023-08-11T03:01:00,75s,2.07
2023-08-11T03:02:00,75s,1.55
2023-08-11T03:03:00,75s,1.57
2023-08-11T03:04:00,75s,1.91
2023-08-11T03:05:00,75s,1.64
2023-08-11T03:06:00,75s,1.67
2023-08-11T03:07:00,75s,1.62
2023-08-11T03:08:00,75s,1.55
2023-08-11T03:09:00,75s,11.06
2023-08-11T03:10:00,75s,10.92
2023-08-11T03:11:00,75s,10.82
2023-08-11T03:12:00,75s,11.00
2023-08-11T03:13:00,75s,10.62
2023-08-11T03:14:00,75s,1.55
2023-08-11T03:15:00,75s,1.56
2023-08-11T03:16:00,75s,1.57
2023-08-11T03:17:00,75s,1.58
2023-08-11T03:18:00,75s,1.59
2023-08-11T03:19:00,75s,1.55
2023-08-11T03:20:00,75s,1.46
2023-08-11T03:21:00,75s,1.55
2023-08-11T03:22:00,75s,1.56
2023-08-11T03:23:00,75s,1.56
2023-08-11T03:24:00,75s,1.40
2023-08-11T03:25:00,75s,1.45
2023-08-11T03:26:00,75s,1.44
2023-08-11T03:27:00,75s,1.57
2023-08-11T03:28:00,75s,1.44
2023-08-11T03:29:00,75s,1.44
2023-08-11T03:30:00,75s,1.52
2023-08-11T03:31:00,75s,1.50
2023-08-11T03:32:00,75s,1.49
2023-08-11T03:33:00,75s,1.50
2023-08-11T03:34:00,75s,1.52
2023-08-11T03:35:00,75s,1.52
2023-08-11T03:36:00,75s,1.67
2023-08-11T03:37:00,75s,1.51
2023-08-11T03:38:00,75s,1.44
2023-08-11T03:39:00,75s,1.44
2023-08-11T03:40:00,75s,1.43
2023-08-11T03:41:00,75s,1.43
2023-08-11T03:42:00,75s,1.39
2023-08-11T03:43:00,75s,1.46
2023-08-11T03:44:00,75s,1.52
2023-08-11T03:45:00,75s,1.55
2023-08-11T03:46:00,75s,1.56
2023-08-11T03:47:00,75s,1.63
2023-08-11T03:48:00,75s,1.56
2023-08-11T03:49:00,75s,1.72
2023-08-11T03:50:00,75s,1.47
2023-08-11T03:51:00,75s,1.47
2023-08-11T03:52:00,75s,1.49
2023-08-11T03:53:00,75s,1.87
2023-08-11T03:54:00,75s,1.47
2023-08-11T03:55:00,75s,1.46
2023-08-11T03:56:00,75s,1.46
2023-08-11T03:57:00,75s,1.54
2023-08-11T03:58:00,75s,1.50
2023-08-11T03:59:00,75s,1.42
2023-08-11T04:00:00,75s,1.51
2023-08-11T04:01:00,75s,1.95
2023-08-11T04:02:00,75s,1.50
2023-08-11T04:03:00,75s,1.41
2023-08-11T04:04:00,75s,1.41
2023-08-11T04:05:00,75s,1.42
2023-08-11T04:06:00,75s,1.50
2023-08-11T04:07:00,75s,1.50
2023-08-11T04:08:00,75s,1.50
2023-08-11T04:09:00,75s,1.50
2023-08-11T04:10:00,75s,1.51
2023-08-11T04:11:00,75s,1.57
2023-08-11T04:12:00,75s,1.70
2023-08-11T04:13:00,75s,1.91
2023-08-11T04:14:00,75s,2.21
2023-08-11T04:15:00,75s,1.54
2023-08-11T04:16:00,75s,1.94
2023-08-11T04:17:00,75s,1.54
2023-08-11T04:18:00,75s,1.92
2023-08-11T04:19:00,75s,1.86
2023-08-11T04:20:00,75s,1.89
2023-08-11T04:21:00,75s,1.91
2023-08-11T04:22:00,75s,1.70
2023-08-11T04:23:00,75s,1.90
2023-08-11T04:24:00,75s,1.62
2023-08-11T04:25:00,75s,2.06
2023-08-11T04:26:00,75s,1.68
2023-08-11T04:27:00,75s,1.60
2023-08-11T04:28:00,75s,1.56
2023-08-11T04:29:00,75s,1.55
2023-08-11T04:30:00,75s,1.63
2023-08-11T04:31:00,75s,1.63
2023-08-11T04:32:00,75s,1.64
2023-08-11T04:33:00,75s,1.54
2023-08-11T04:34:00,75s,1.53
2023-08-11T04:35:00,75s,1.53
2023-08-11T04:36:00,75s,1.53
2023-08-11T04:37:00,75s,1.53
2023-08-11T04:38:00,75s,1.49
2023-08-11T04:39:00,75s,1.48
2023-08-11T04:40:00,75s,1.62
2023-08-11T04:41:00,75s,1.58
2023-08-11T04:42:00,75s,1.48
2023-08-11T04:43:00,75s,1.47
2023-08-11T04:44:00,75s,1.54
2023-08-11T04:45:00,75s,1.53
2023-08-11T04:46:00,75s,1.80
2023-08-11T04:47:00,75s,1.54
2023-08-11T04:48:00,75s,1.53
2023-08-11T04:49:00,75s,1.53
2023-08-11T04:50:00,75s,1.79
2023-08-11T04:51:00,75s,1.43
2023-08-11T04:52:00,75s,1.83
2023-08-11T04:53:00,75s,1.46
2023-08-11T04:54:00,75s,1.46
2023-08-11T04:55:00,75s,1.44
2023-08-11T04:56:00,75s,1.44
2023-08-11T04:57:00,75s,1.52
2023-08-11T04:58:00,75s,1.65
2023-08-11T04:59:00,75s,1.65
2023-08-11T05:00:00,75s,1.57
2023-08-11T05:01:00,75s,1.49
2023-08-11T05:02:00,75s,1.58
2023-08-11T05:03:00,75s,1.50
2023-08-11T05:04:00,75s,1.61
2023-08-11T05:05:00,75s,1.48
2023-08-11T05:06:00,75s,1.48
2023-08-11T05:07:00,75s,1.87
2023-08-11T05:08:00,75s,1.48
2023-08-11T05:09:00,75s,1.57
2023-08-11T05:10:00,75s,1.64
2023-08-11T05:11:00,75s,1.64
2023-08-11T05:12:00,75s,1.56
2023-08-11T05:13:00,75s,1.43
2023-08-11T05:14:00,75s,1.42
2023-08-11T05:15:00,75s,1.38
2023-08-11T05:16:00,75s,1.38
2023-08-11T05:17:00,75s,1.48
2023-08-11T05:18:00,75s,1.49
2023-08-11T05:19:00,75s,1.47
2023-08-11T05:20:00,75s,1.47
2023-08-11T05:21:00,75s,1.55
2023-08-11T05:22:00,75s,1.55
2023-08-11T05:23:00,75s,1.62
2023-08-11T05:24:00,75s,1.55
2023-08-11T05:25:00,75s,1.52
2023-08-11T05:26:00,75s,1.47
2023-08-11T05:27:00,75s,1.47
2023-08-11T05:28:00,75s,1.47
2023-08-11T05:29:00,75s,1.46
2023-08-11T05:30:00,75s,1.47
2023-08-11T05:31:00,75s,1.47
2023-08-11T05:32:00,75s,1.59
2023-08-11T05:33:00,75s,1.55
2023-08-11T05:34:00,75s,1.57
2023-08-11T05:35:00,75s,1.55
2023-08-11T05:36:00,75s,1.47
2023-08-11T05:37:00,75s,1.47
2023-08-11T05:38:00,75s,1.48
2023-08-11T05:39:00,75s,1.55
2023-08-11T05:40:00,75s,1.59
2023-08-11T05:41:00,75s,1.57
2023-08-11T05:42:00,75s,1.49
2023-08-11T05:43:00,75s,1.48
2023-08-11T05:44:00,75s,1.53
2023-08-11T05:45:00,75s,1.61
2023-08-11T05:46:00,75s,1.61
2023-08-11T05:47:00,75s,1.63
2023-08-11T05:48:00,75s,1.46
2023-08-11T05:49:00,75s,1.48
2023-08-11T05:50:00,75s,1.81
2023-08-11T05:51:00,75s,1.46
2023-08-11T05:52:00,75s,1.41
2023-08-11T05:53:00,75s,1.68
2023-08-11T05:54:00,75s,1.48
2023-08-11T05:55:00,75s,1.47
2023-08-11T05:56:00,75s,1.89
2023-08-11T05:57:00,75s,1.77
2023-08-11T05:58:00,75s,2.21
2023-08-11T05:59:00,75s,1.80
2023-08-11T06:00:00,75s,1.71
2023-08-11T06:01:00,75s,2.98
2023-08-11T06:02:00,75s,3.47
2023-08-11T06:03:00,75s,4.27
2023-08-11T06:04:00,75s,3.98
2023-08-11T06:05:00,75s,3.91
2023-08-11T06:06:00,75s,14.30
2023-08-11T06:07:00,75s,14.53
2023-08-11T06:08:00,75s,14.23
2023-08-11T06:09:00,75s,14.17
2023-08-11T06:10:00,75s,14.11
2023-08-11T06:11:00,75s,14.01
2023-08-11T06:12:00,75s,13.75
2023-08-11T06:13:00,75s,13.72
2023-08-11T06:14:00,75s,13.76
2023-08-11T06:15:00,75s,13.75
2023-08-11T06:16:00,75s,20.01
2023-08-11T06:17:00,75s,19.62
2023-08-11T06:18:00,75s,19.67
2023-08-11T06:19:00,75s,19.70
2023-08-11T06:20:00,75s,13.82
2023-08-11T06:21:00,75s,13.85
2023-08-11T06:22:00,75s,14.18
2023-08-11T06:23:00,75s,14.32
2023-08-11T06:24:00,75s,14.32
2023-08-11T06:25:00,75s,14.32
2023-08-11T06:26:00,75s,14.24
2023-08-11T06:27:00,75s,14.54
2023-08-11T06:28:00,75s,14.57
2023-08-11T06:29:00,75s,14.59
2023-08-11T06:30:00,75s,4.36
2023-08-11T06:31:00,75s,4.35
2023-08-11T06:32:00,75s,4.36
2023-08-11T06:33:00,75s,4.36
2023-08-11T06:34:00,75s,4.36
2023-08-11T06:35:00,75s,4.35
2023-08-11T06:36:00,75s,4.39
2023-08-11T06:37:00,75s,4.90
2023-08-11T06:38:00,75s,4.49
2023-08-11T06:39:00,75s,14.83
2023-08-11T06:40:00,75s,14.88
2023-08-11T06:41:00,75s,14.87
2023-08-11T06:42:00,75s,14.96
2023-08-11T06:43:00,75s,14.89
2023-08-11T06:44:00,75s,14.82
2023-08-11T06:45:00,75s,15.10
2023-08-11T06:46:00,75s,14.74
2023-08-11T06:47:00,75s,15.05
2023-08-11T06:48:00,75s,14.70
2023-08-11T06:49:00,75s,21.07
2023-08-11T06:50:00,75s,20.36
2023-08-11T06:51:00,75s,20.83
2023-08-11T06:52:00,75s,20.37
2023-08-11T06:53:00,75s,20.41
2023-08-11T06:54:00,75s,20.35
2023-08-11T06:55:00,75s,20.24
2023-08-11T06:56:00,75s,20.32
2023-08-11T06:57:00,75s,14.77
2023-08-11T06:58:00,75s,14.78
2023-08-11T06:59:00,75s,14.70
2023-08-11T07:00:00,75s,14.66
2023-08-11T07:01:00,75s,15.12
2023-08-11T07:02:00,75s,14.67
2023-08-11T07:03:00,75s,14.75
2023-08-11T07:04:00,75s,14.70
2023-08-11T07:05:00,75s,14.62
2023-08-11T07:06:00,75s,14.70
2023-08-11T07:07:00,75s,14.63
2023-08-11T07:08:00,75s,14.82
2023-08-11T07:09:00,75s,14.94
2023-08-11T07:10:00,75s,15.07
2023-08-11T07:11:00,75s,15.11
2023-08-11T07:12:00,75s,15.07
2023-08-11T07:13:00,75s,15.13
2023-08-11T07:14:00,75s,15.07
2023-08-11T07:15:00,75s,15.16
2023-08-11T07:16:00,75s,15.14
2023-08-11T07:17:00,75s,15.12
2023-08-11T07:18:00,75s,15.01
2023-08-11T07:19:00,75s,14.78
2023-08-11T07:20:00,75s,14.73
2023-08-11T07:21:00,75s,14.72
2023-08-11T07:22:00,75s,14.72
2023-08-11T07:23:00,75s,14.73
2023-08-11T07:24:00,75s,14.92
2023-08-11T07:25:00,75s,14.93
2023-08-11T07:26:00,75s,14.94
2023-08-11T07:27:00,75s,14.87
2023-08-11T07:28:00,75s,14.85
2023-08-11T07:29:00,75s,15.07
2023-08-11T07:30:00,75s,14.89
2023-08-11T07:31:00,75s,15.56
2023-08-11T07:32:00,75s,14.89
2023-08-11T07:33:00,75s,14.92
2023-08-11T07:34:00,75s,24.02
2023-08-11T07:35:00,75s,23.81
2023-08-11T07:36:00,75s,24.36
2023-08-11T07:37:00,75s,23.79
2023-08-11T07:38:00,75s,23.86
2023-08-11T07:39:00,75s,23.45
2023-08-11T07:40:00,75s,15.22
2023-08-11T07:41:00,75s,14.87
2023-08-11T07:42:00,75s,14.85
2023-08-11T07:43:00,75s,14.82
2023-08-11T07:44:00,75s,14.79
2023-08-11T07:45:00,75s,14.94
2023-08-11T07:46:00,75s,14.97
2023-08-11T07:47:00,75s,15.48
2023-08-11T07:48:00,75s,14.77
2023-08-11T07:49:00,75s,15.09
2023-08-11T07:50:00,75s,14.78
2023-08-11T07:51:00,75s,14.80
2023-08-11T07:52:00,75s,4.30
2023-08-11T07:53:00,75s,4.30
2023-08-11T07:54:00,75s,4.30
2023-08-11T07:55:00,75s,4.29
2023-08-11T07:56:00,75s,4.37
2023-08-11T07:57:00,75s,4.42
2023-08-11T07:58:00,75s,4.42
2023-08-11T07:59:00,75s,4.34
2023-08-11T08:00:00,75s,4.30
2023-08-11T08:01:00,75s,14.85
2023-08-11T08:02:00,75s,15.28
2023-08-11T08:03:00,75s,15.25
2023-08-11T08:04:00,75s,15.34
2023-08-11T08:05:00,75s,15.43
2023-08-11T08:06:00,75s,15.42
2023-08-11T08:07:00,75s,15.87
2023-08-11T08:08:00,75s,15.53
2023-08-11T08:09:00,75s,15.61
2023-08-11T08:10:00,75s,15.61
2023-08-11T08:11:00,75s,15.53
2023-08-11T08:12:00,75s,26.54
2023-08-11T08:13:00,75s,27.25
2023-08-11T08:14:00,75s,27.13
2023-08-11T08:15:00,75s,27.26
2023-08-11T08:16:00,75s,27.25
2023-08-11T08:17:00,75s,27.00
2023-08-11T08:18:00,75s,27.10
2023-08-11T08:19:00,75s,26.89
2023-08-11T08:20:00,75s,26.96
2023-08-11T08:21:00,75s,26.98
2023-08-11T08:22:00,75s,27.02
2023-08-11T08:23:00,75s,26.76
2023-08-11T08:24:00,75s,26.70
2023-08-11T08:25:00,75s,26.41
2023-08-11T08:26:00,75s,26.30
2023-08-11T08:27:00,75s,26.19
2023-08-11T08:28:00,75s,26.36
2023-08-11T08:29:00,75s,24.24
2023-08-11T08:30:00,75s,22.70
2023-08-11T08:31:00,75s,20.95
2023-08-11T08:32:00,75s,20.88
2023-08-11T08:33:00,75s,22.58
2023-08-11T08:34:00,75s,20.95
2023-08-11T08:35:00,75s,21.25
2023-08-11T08:36:00,75s,21.16
2023-08-11T08:37:00,75s,21.17
2023-08-11T08:38:00,75s,21.17
2023-08-11T08:39:00,75s,21.19
2023-08-11T08:40:00,75s,21.46
2023-08-11T08:41:00,75s,21.28
2023-08-11T08:42:00,75s,21.28
2023-08-11T08:43:00,75s,21.31
2023-08-11T08:44:00,75s,21.35
2023-08-11T08:45:00,75s,21.40
2023-08-11T08:46:00,75s,22.23
2023-08-11T08:47:00,75s,22.50
2023-08-11T08:48:00,75s,21.81
2023-08-11T08:49:00,75s,25.48
2023-08-11T08:50:00,75s,27.49
2023-08-11T08:51:00,75s,24.22
2023-08-11T08:52:00,75s,26.93
2023-08-11T08:53:00,75s,27.21
2023-08-11T08:54:00,75s,21.49
2023-08-11T08:55:00,75s,21.52
2023-08-11T08:56:00,75s,21.87
2023-08-11T08:57:00,75s,21.65
2023-08-11T08:58:00,75s,22.87
2023-08-11T08:59:00,75s,22.19
2023-08-11T09:00:00,75s,21.47
2023-08-11T09:01:00,75s,26.70
2023-08-11T09:02:00,75s,27.43
2023-08-11T09:03:00,75s,27.39
2023-08-11T09:04:00,75s,27.73
2023-08-11T09:05:00,75s,27.10
2023-08-11T09:06:00,75s,27.14
2023-08-11T09:07:00,75s,27.21
2023-08-11T09:08:00,75s,27.29
2023-08-11T09:09:00,75s,27.13
2023-08-11T09:10:00,75s,27.11
2023-08-11T09:11:00,75s,27.12
2023-08-11T09:12:00,75s,27.07
2023-08-11T09:13:00,75s,27.13
2023-08-11T09:14:00,75s,27.04
2023-08-11T09:15:00,75s,27.76
2023-08-11T09:16:00,75s,27.08
2023-08-11T09:17:00,75s,27.13
2023-08-11T09:18:00,75s,27.53
2023-08-11T09:19:00,75s,27.17
2023-08-11T09:20:00,75s,27.35
2023-08-11T09:21:00,75s,27.32
2023-08-11T09:22:00,75s,27.16
2023-08-11T09:23:00,75s,27.07
2023-08-11T09:24:00,75s,27.10
2023-08-11T09:25:00,75s,27.17
2023-08-11T09:26:00,75s,27.16
2023-08-11T09:27:00,75s,26.91
2023-08-11T09:28:00,75s,26.92
2023-08-11T09:29:00,75s,27.06
2023-08-11T09:30:00,75s,25.01
2023-08-11T09:31:00,75s,23.13
2023-08-11T09:32:00,75s,21.90
2023-08-11T09:33:00,75s,21.53
2023-08-11T09:34:00,75s,24.55
2023-08-11T09:35:00,75s,22.63
2023-08-11T09:36:00,75s,21.62
2023-08-11T09:37:00,75s,21.62
2023-08-11T09:38:00,75s,21.71
2023-08-11T09:39:00,75s,21.93
2023-08-11T09:40:00,75s,21.53
2023-08-11T09:41:00,75s,21.67
2023-08-11T09:42:00,75s,21.58
2023-08-11T09:43:00,75s,21.57
2023-08-11T09:44:00,75s,21.60
2023-08-11T09:45:00,75s,21.74
2023-08-11T09:46:00,75s,21.70
2023-08-11T09:47:00,75s,21.89
2023-08-11T09:48:00,75s,21.64
2023-08-11T09:49:00,75s,24.94
2023-08-11T09:50:00,75s,26.75
2023-08-11T09:51:00,75s,27.76
2023-08-11T09:52:00,75s,27.77
2023-08-11T09:53:00,75s,27.70
2023-08-11T09:54:00,75s,27.67
2023-08-11T09:55:00,75s,27.56
2023-08-11T09:56:00,75s,27.74
2023-08-11T09:57:00,75s,27.51
2023-08-11T09:58:00,75s,28.02
2023-08-11T09:59:00,75s,27.39
2023-08-11T10:00:00,75s,27.35
2023-08-11T10:01:00,75s,27.61
2023-08-11T10:02:00,75s,27.29
2023-08-11T10:03:00,75s,27.10
2023-08-11T10:04:00,75s,27.64
2023-08-11T10:05:00,75s,27.37
2023-08-11T10:06:00,75s,27.25
2023-08-11T10:07:00,75s,27.37
2023-08-11T10:08:00,75s,27.09
2023-08-11T10:09:00,75s,27.02
2023-08-11T10:10:00,75s,26.91
2023-08-11T10:11:00,75s,26.76
2023-08-11T10:12:00,75s,26.99
2023-08-11T10:13:00,75s,26.64
2023-08-11T10:14:00,75s,26.64
2023-08-11T10:15:00,75s,21.68
2023-08-11T10:16:00,75s,22.99
2023-08-11T10:17:00,75s,21.81
2023-08-11T10:18:00,75s,22.19
2023-08-11T10:19:00,75s,22.12
2023-08-11T10:20:00,75s,21.71
2023-08-11T10:21:00,75s,21.80
2023-08-11T10:22:00,75s,21.91
2023-08-11T10:23:00,75s,21.86
2023-08-11T10:24:00,75s,25.37
2023-08-11T10:25:00,75s,27.63
2023-08-11T10:26:00,75s,27.60
2023-08-11T10:27:00,75s,27.14
2023-08-11T10:28:00,75s,27.12
2023-08-11T10:29:00,75s,27.66
2023-08-11T10:30:00,75s,27.46
2023-08-11T10:31:00,75s,27.10
2023-08-11T10:32:00,75s,26.81
2023-08-11T10:33:00,75s,27.06
2023-08-11T10:34:00,75s,26.66
2023-08-11T10:35:00,75s,26.97
2023-08-11T10:36:00,75s,26.66
2023-08-11T10:37:00,75s,26.47
2023-08-11T10:38:00,75s,26.63
2023-08-11T10:39:00,75s,26.23
2023-08-11T10:40:00,75s,21.33
2023-08-11T10:41:00,75s,24.75
2023-08-11T10:42:00,75s,23.59
2023-08-11T10:43:00,75s,21.89
2023-08-11T10:44:00,75s,21.63
2023-08-11T10:45:00,75s,21.57
2023-08-11T10:46:00,75s,22.32
2023-08-11T10:47:00,75s,21.95
2023-08-11T10:48:00,75s,21.71
2023-08-11T10:49:00,75s,21.51
2023-08-11T10:50:00,75s,21.49
2023-08-11T10:51:00,75s,21.77
2023-08-11T10:52:00,75s,21.83
2023-08-11T10:53:00,75s,21.66
2023-08-11T10:54:00,75s,21.74
2023-08-11T10:55:00,75s,21.76
2023-08-11T10:56:00,75s,21.66
2023-08-11T10:57:00,75s,22.14
2023-08-11T10:58:00,75s,21.76
2023-08-11T10:59:00,75s,22.03
2023-08-11T11:00:00,75s,21.87
2023-08-11T11:01:00,75s,22.07
2023-08-11T11:02:00,75s,22.11
2023-08-11T11:03:00,75s,21.82
2023-08-11T11:04:00,75s,22.16
2023-08-11T11:05:00,75s,22.01
2023-08-11T11:06:00,75s,23.28
2023-08-11T11:07:00,75s,24.82
2023-08-11T11:08:00,75s,26.52
2023-08-11T11:09:00,75s,27.89
2023-08-11T11:10:00,75s,28.19
2023-08-11T11:11:00,75s,28.13
2023-08-11T11:12:00,75s,28.17
2023-08-11T11:13:00,75s,28.28
2023-08-11T11:14:00,75s,28.24
2023-08-11T11:15:00,75s,28.19
2023-08-11T11:16:00,75s,28.85
2023-08-11T11:17:00,75s,28.30
2023-08-11T11:18:00,75s,28.25
2023-08-11T11:19:00,75s,28.57
2023-08-11T11:20:00,75s,28.61
2023-08-11T11:21:00,75s,28.62
2023-08-11T11:22:00,75s,28.55
2023-08-11T11:23:00,75s,28.77
2023-08-11T11:24:00,75s,28.64
2023-08-11T11:25:00,75s,29.05
2023-08-11T11:26:00,75s,28.60
2023-08-11T11:27:00,75s,28.54
2023-08-11T11:28:00,75s,28.61
2023-08-11T11:29:00,75s,28.32
2023-08-11T11:30:00,75s,28.24
2023-08-11T11:31:00,75s,28.31
2023-08-11T11:32:00,75s,37.37
2023-08-11T11:33:00,75s,37.10
2023-08-11T11:34:00,75s,37.42
2023-08-11T11:35:00,75s,36.95
2023-08-11T11:36:00,75s,36.84
2023-08-11T11:37:00,75s,36.92
2023-08-11T11:38:00,75s,28.51
2023-08-11T11:39:00,75s,28.57
2023-08-11T11:40:00,75s,28.77
2023-08-11T11:41:00,75s,29.14
2023-08-11T11:42:00,75s,28.92
2023-08-11T11:43:00,75s,28.85
2023-08-11T11:44:00,75s,28.98
2023-08-11T11:45:00,75s,28.97
2023-08-11T11:46:00,75s,28.96
2023-08-11T11:47:00,75s,29.06
2023-08-11T11:48:00,75s,29.15
2023-08-11T11:49:00,75s,29.22
2023-08-11T11:50:00,75s,29.16
2023-08-11T11:51:00,75s,29.11
2023-08-11T11:52:00,75s,29.47
2023-08-11T11:53:00,75s,29.42
2023-08-11T11:54:00,75s,29.88
2023-08-11T11:55:00,75s,29.36
2023-08-11T11:56:00,75s,29.16
2023-08-11T11:57:00,75s,29.36
2023-08-11T11:58:00,75s,29.12
2023-08-11T11:59:00,75s,29.18
2023-08-11T12:00:00,75s,29.21
2023-08-11T12:01:00,75s,29.06
2023-08-11T12:02:00,75s,29.45
2023-08-11T12:03:00,75s,29.24
2023-08-11T12:04:00,75s,29.28
2023-08-11T12:05:00,75s,29.22
2023-08-11T12:06:00,75s,29.56
2023-08-11T12:07:00,75s,27.39
2023-08-11T12:08:00,75s,25.87
2023-08-11T12:09:00,75s,24.50
2023-08-11T12:10:00,75s,30.16
2023-08-11T12:11:00,75s,29.97
2023-08-11T12:12:00,75s,27.90
2023-08-11T12:13:00,75s,30.05
2023-08-11T12:14:00,75s,29.89
2023-08-11T12:15:00,75s,29.50
2023-08-11T12:16:00,75s,29.24
2023-08-11T12:17:00,75s,29.39
2023-08-11T12:18:00,75s,29.34
2023-08-11T12:19:00,75s,29.55
2023-08-11T12:20:00,75s,29.54
2023-08-11T12:21:00,75s,29.23
2023-08-11T12:22:00,75s,29.52
2023-08-11T12:23:00,75s,28.93
2023-08-11T12:24:00,75s,29.49
2023-08-11T12:25:00,75s,29.02
2023-08-11T12:26:00,75s,29.05
2023-08-11T12:27:00,75s,29.15
2023-08-11T12:28:00,75s,29.17
2023-08-11T12:29:00,75s,29.23
2023-08-11T12:30:00,75s,29.56
2023-08-11T12:31:00,75s,29.63
2023-08-11T12:32:00,75s,29.66
2023-08-11T12:33:00,75s,30.39
2023-08-11T12:34:00,75s,29.65
2023-08-11T12:35:00,75s,29.50
2023-08-11T12:36:00,75s,29.38
2023-08-11T12:37:00,75s,29.45
2023-08-11T12:38:00,75s,29.51
2023-08-11T12:39:00,75s,29.09
2023-08-11T12:40:00,75s,28.98
2023-08-11T12:41:00,75s,28.93
2023-08-11T12:42:00,75s,28.88
2023-08-11T12:43:00,75s,28.73
2023-08-11T12:44:00,75s,28.52
2023-08-11T12:45:00,75s,28.24
2023-08-11T12:46:00,75s,28.16
2023-08-11T12:47:00,75s,28.25
2023-08-11T12:48:00,75s,27.85
2023-08-11T12:49:00,75s,27.65
2023-08-11T12:50:00,75s,22.05
2023-08-11T12:51:00,75s,23.79
2023-08-11T12:52:00,75s,22.05
2023-08-11T12:53:00,75s,22.02
2023-08-11T12:54:00,75s,22.33
2023-08-11T12:55:00,75s,22.00
2023-08-11T12:56:00,75s,21.94
2023-08-11T12:57:00,75s,22.02
2023-08-11T12:58:00,75s,21.95
2023-08-11T12:59:00,75s,21.94
2023-08-11T13:00:00,75s,21.88
2023-08-11T13:01:00,75s,21.84
2023-08-11T13:02:00,75s,21.90
2023-08-11T13:03:00,75s,22.29
2023-08-11T13:04:00,75s,24.25
2023-08-11T13:05:00,75s,25.78
2023-08-11T13:06:00,75s,27.53
2023-08-11T13:07:00,75s,28.02
2023-08-11T13:08:00,75s,27.99
2023-08-11T13:09:00,75s,27.96
2023-08-11T13:10:00,75s,28.12
2023-08-11T13:11:00,75s,28.06
2023-08-11T13:12:00,75s,28.49
2023-08-11T13:13:00,75s,28.09
2023-08-11T13:14:00,75s,28.72
2023-08-11T13:15:00,75s,28.31
2023-08-11T13:16:00,75s,28.74
2023-08-11T13:17:00,75s,28.45
2023-08-11T13:18:00,75s,28.47
2023-08-11T13:19:00,75s,28.46
2023-08-11T13:20:00,75s,28.54
2023-08-11T13:21:00,75s,28.72
2023-08-11T13:22:00,75s,28.59
2023-08-11T13:23:00,75s,28.55
2023-08-11T13:24:00,75s,28.25
2023-08-11T13:25:00,75s,28.30
2023-08-11T13:26:00,75s,28.45
2023-08-11T13:27:00,75s,28.32
2023-08-11T13:28:00,75s,28.37
2023-08-11T13:29:00,75s,28.32
2023-08-11T13:30:00,75s,28.50